Weather History for Perry, IA

Change the Weather History Date:

Thursday, May 17, 2012

  Actual Average Record
Temperature  
Mean Temperature 72 °F -  
Max Temperature 87 °F 73 °F 89 °F (1992)
Min Temperature 56 °F 50 °F 36 °F (1973)
Cooling Degree Days 6    
Growing Degree Days 22 (Base 50)    
Moisture  
Dew Point 43 °F    
Average Humidity 39    
Maximum Humidity 65    
Minimum Humidity 19    
Precipitation  
Precipitation 0.00 in - - ()
Sea Level Pressure  
Sea Level Pressure 29.95 in    
Wind  
Wind Speed 13 mph (SSE)    
Max Wind Speed 28 mph    
Max Gust Speed 32 mph    
Visibility 10 miles    
Events      
Averages and records for this station are not official NWS values.
T = Trace of Precipitation, MM = Missing Value Source: NWS Daily Summary

Daily Weather History Graph

Daily Weather History Graph

Search for Another Location

Airport:

Trip Planner

Search our weather history database for the weather conditions in past years. The results will help you decide how hot, cold, wet, or windy it might be!

Date:

Astronomy

May. 17, 2012 Rise Set
Actual Time 5:54 AM CDT 8:32 PM CDT
Civil Twilight 5:22 AM CDT 9:04 PM CDT
Nautical Twilight 4:42 AM CDT 9:44 PM CDT
Astronomical Twilight 3:56 AM CDT 10:30 PM CDT
Moon 3:55 AM CDT (5/17) 5:43 PM CDT (5/17)
Length of Visible Light 15h 42m
Length of Day
14h 38m
Waning Crescent, 9% of the Moon is Illuminated
May 17
Waning Crescent
May 20
New
May 28
First Quarter
Jun 4
Full
Jun 11
Last Quarter

Hourly Weather History & Observations

Time (CDT) Temp. Dew Point Humidity Pressure Visibility Wind Dir Wind Speed Gust Speed Precip Events Conditions
12:15 AM 61.0 °F 41.0 °F 48% 30.03 in 10.0 mi SSE 5.8 mph - N/A   Clear
12:35 AM 59.9 °F 41.5 °F 51% 30.03 in 10.0 mi SSE 6.9 mph - N/A   Clear
12:55 AM 58.3 °F 42.3 °F 55% 30.03 in 10.0 mi SSE 6.9 mph - N/A   Clear
1:15 AM 60.8 °F 42.4 °F 51% 30.02 in 10.0 mi SSE 8.1 mph - N/A   Clear
1:35 AM 60.6 °F 43.0 °F 52% 30.02 in 10.0 mi SSE 9.2 mph - N/A   Clear
2:15 AM 59.2 °F 43.9 °F 57% 30.01 in 10.0 mi SSE 8.1 mph - N/A   Clear
2:35 AM 57.6 °F 44.1 °F 61% 30.01 in 10.0 mi SSE 8.1 mph - N/A   Clear
2:55 AM 58.6 °F 44.6 °F 60% 30.01 in 10.0 mi SSE 9.2 mph - N/A   Clear
3:15 AM 59.0 °F 44.6 °F 59% 30.00 in 10.0 mi SSE 10.4 mph - N/A   Clear
3:55 AM 58.3 °F 44.6 °F 60% 29.99 in 10.0 mi SSE 11.5 mph - N/A   Clear
4:15 AM 58.5 °F 44.8 °F 60% 29.99 in 10.0 mi SSE 10.4 mph - N/A   Clear
4:35 AM 57.7 °F 44.8 °F 62% 29.99 in 10.0 mi SE 10.4 mph - N/A   Clear
4:55 AM 56.7 °F 45.0 °F 65% 29.99 in 10.0 mi SSE 8.1 mph - N/A   Clear
5:15 AM 58.1 °F 44.6 °F 61% 29.99 in 10.0 mi SSE 10.4 mph - N/A   Clear
5:35 AM 58.6 °F 44.6 °F 60% 29.99 in 10.0 mi SSE 10.4 mph - N/A   Clear
5:55 AM 57.7 °F 44.6 °F 62% 30.00 in 10.0 mi SSE 8.1 mph - N/A   Clear
6:15 AM 56.8 °F 44.6 °F 64% 30.01 in 10.0 mi SSE 8.1 mph - N/A   Clear
6:35 AM 58.1 °F 45.1 °F 62% 30.02 in 10.0 mi SSE 5.8 mph - N/A   Clear
6:55 AM 60.1 °F 45.0 °F 57% 30.02 in 10.0 mi SSE 9.2 mph - N/A   Clear
7:15 AM 61.9 °F 43.5 °F 51% 30.02 in 10.0 mi SSE 12.7 mph - N/A   Clear
7:35 AM 63.3 °F 42.8 °F 47% 30.03 in 10.0 mi SSE 11.5 mph - N/A   Clear
7:55 AM 64.4 °F 42.1 °F 44% 30.03 in 10.0 mi SSE 12.7 mph - N/A   Clear
8:15 AM 65.5 °F 42.4 °F 43% 30.03 in 10.0 mi SE 13.8 mph - N/A   Clear
8:35 AM 66.2 °F 42.1 °F 41% 30.02 in 10.0 mi SSE 16.1 mph - N/A   Clear
8:55 AM 68.0 °F 42.1 °F 39% 30.01 in 10.0 mi SSE 17.3 mph 21.9 mph N/A   Clear
9:15 AM 70.3 °F 41.4 °F 35% 30.01 in 10.0 mi SSE 19.6 mph 24.2 mph N/A   Clear
9:35 AM 71.6 °F 41.0 °F 33% 30.00 in 10.0 mi SSE 21.9 mph 29.9 mph N/A   Clear
9:55 AM 73.0 °F 40.6 °F 31% 30.00 in 10.0 mi South 24.2 mph 28.8 mph N/A   Clear
10:15 AM 73.9 °F 40.3 °F 30% 29.99 in 10.0 mi SSE 23.0 mph 29.9 mph N/A   Clear
10:35 AM 75.0 °F 39.9 °F 28% 29.98 in 10.0 mi SSE 25.3 mph 29.9 mph N/A   Clear
10:55 AM 76.6 °F 39.6 °F 26% 29.98 in 10.0 mi SSE 26.5 mph 32.2 mph N/A   Clear
11:15 AM 77.7 °F 39.0 °F 25% 29.97 in 10.0 mi SSE 27.6 mph - N/A   Clear
11:35 AM 78.4 °F 39.6 °F 25% 29.97 in 10.0 mi SSE 24.2 mph - N/A   Clear
11:55 AM 79.0 °F 39.7 °F 25% 29.97 in 10.0 mi SSE 23.0 mph 28.8 mph N/A   Clear
12:15 PM 79.9 °F 39.6 °F 24% 29.96 in 10.0 mi SSE 21.9 mph 32.2 mph N/A   Clear
12:55 PM 82.6 °F 39.0 °F 21% 29.94 in 10.0 mi SSE 24.2 mph 29.9 mph N/A   Clear
1:15 PM 83.3 °F 39.0 °F 21% 29.93 in 10.0 mi SSE 24.2 mph - N/A   Clear
1:35 PM 83.3 °F 39.7 °F 21% 29.92 in 10.0 mi SSE 23.0 mph 29.9 mph N/A   Clear
1:55 PM 84.2 °F 39.7 °F 21% 29.92 in 10.0 mi SSE 23.0 mph 32.2 mph N/A   Clear
2:15 PM 84.9 °F 39.7 °F 20% 29.92 in 10.0 mi SSE 18.4 mph 31.1 mph N/A   Clear
2:35 PM 85.6 °F 39.7 °F 20% 29.91 in 10.0 mi South 21.9 mph 29.9 mph N/A   Clear
2:55 PM 85.8 °F 39.6 °F 19% 29.91 in 10.0 mi SSE 21.9 mph 32.2 mph N/A   Clear
3:15 PM 86.2 °F 39.9 °F 20% 29.90 in 10.0 mi SSE 21.9 mph 26.5 mph N/A   Clear
3:35 PM 87.3 °F 39.6 °F 19% 29.89 in 10.0 mi SSE 21.9 mph 27.6 mph N/A   Clear
3:55 PM 86.2 °F 40.1 °F 20% 29.88 in 10.0 mi South 18.4 mph 29.9 mph N/A   Clear
4:15 PM 86.7 °F 40.1 °F 19% 29.88 in 10.0 mi South 21.9 mph 31.1 mph N/A   Clear
4:35 PM 86.7 °F 40.6 °F 20% 29.87 in 10.0 mi SSE 20.7 mph 28.8 mph N/A   Clear
4:55 PM 86.2 °F 41.4 °F 21% 29.86 in 10.0 mi South 20.7 mph 28.8 mph N/A   Clear
5:15 PM 85.5 °F 41.9 °F 22% 29.86 in 10.0 mi SSE 21.9 mph 28.8 mph N/A   Clear
5:35 PM 83.7 °F 42.1 °F 23% 29.86 in 10.0 mi SSE 21.9 mph 28.8 mph N/A   Clear
5:55 PM 82.6 °F 43.0 °F 25% 29.86 in 10.0 mi South 21.9 mph - N/A   Clear
6:35 PM 81.9 °F 44.1 °F 26% 29.86 in 10.0 mi SSE 20.7 mph - N/A   Clear
6:55 PM 81.7 °F 44.8 °F 27% 29.86 in 10.0 mi SSE 21.9 mph - N/A   Clear
7:15 PM 80.1 °F 44.6 °F 29% 29.86 in 10.0 mi SSE 21.9 mph 28.8 mph N/A   Clear
7:35 PM 79.3 °F 44.8 °F 29% 29.86 in 10.0 mi SSE 17.3 mph 25.3 mph N/A   Clear
7:55 PM 77.9 °F 45.1 °F 31% 29.86 in 10.0 mi SSE 19.6 mph 24.2 mph N/A   Clear
8:15 PM 76.8 °F 45.5 °F 33% 29.87 in 10.0 mi SSE 15.0 mph - N/A   Clear
8:35 PM 75.6 °F 45.9 °F 35% 29.87 in 10.0 mi SSE 15.0 mph 19.6 mph N/A   Clear
8:55 PM 73.6 °F 46.8 °F 38% 29.87 in 10.0 mi SSE 12.7 mph - N/A   Clear
9:15 PM 72.9 °F 47.3 °F 40% 29.88 in 10.0 mi SSE 12.7 mph - N/A   Clear
9:35 PM 72.1 °F 47.3 °F 41% 29.88 in 10.0 mi SSE 11.5 mph - N/A   Clear
9:55 PM 71.4 °F 47.1 °F 42% 29.89 in 10.0 mi SSE 11.5 mph - N/A   Clear
10:15 PM 70.3 °F 46.9 °F 43% 29.89 in 10.0 mi SSE 12.7 mph - N/A   Clear
10:55 PM 69.1 °F 46.9 °F 45% 29.89 in 10.0 mi SSE 12.7 mph - N/A   Clear
11:15 PM 68.2 °F 46.8 °F 46% 29.89 in 10.0 mi SSE 13.8 mph - N/A   Clear
11:35 PM 67.8 °F 46.6 °F 46% 29.88 in 10.0 mi SSE 15.0 mph - N/A   Clear
11:55 PM 67.6 °F 46.4 °F 46% 29.87 in 10.0 mi SSE 15.0 mph - N/A   Clear